Content
SEND FEEDBACK

Daily
Averages
Monthly
Summary
United States of America

TILLAMOOK, OREGON


Home > North America > United States > Oregon
Elevation: 10 feet     Latitude: 45 27N     Longitude: 123 52W

WEATHER
 
SELECT A DAY
Number of Records: 188,275;   Date Range: 11/29/06 - 7/29/14
 
SHARE

PRINT THIS DATA

[ ← Previous Day ]
WEATHER ALMANAC - FEBRUARY 13, 2013
[ Next Day → ]
[ °C ]   °F
Weather ElementAverageHighLow
Temperature48.4 °F51.8 °F (2:35 pm)46.4 °F (8:35 am)
Dewpoint46 °F50 °F (6:35 am)42.8 °F (12:35 pm)
Humidity91.7 %100 % (12:35 am)71 % (2:35 pm)
Barometer30.48 in30.52 in (10:35 pm)30.44 in (5:15 am)
Wind Speed2.6 mph10.4 mph (7:35 am)
Weather ElementAverage
Visibility7.4 mi
Wind DirectionESE (119.2 °)

Weather ElementTotal
Precipitation0.22 in
Heating Degree Days15.9 (Base 65)
Averaged from 71 records on February 13, 2013
WEATHER CONDITIONS BREAKOUT
WIND DIRECTION BREAKOUT
WEATHER BY HOUR - FEBRUARY 13, 2013
[ °C ]   °F
Local TimeTemperatureDewpointHumidityBarometerVisibilityWind DirectionWind SpeedGust SpeedPrecipitationEventsConditions
12:35 AM48.2 °F48.2 °F100 %30.47 in7.0 miCalmOvercast
12:55 AM48.2 °F48.2 °F100 %30.47 in10.0 miCalmOvercast
1:15 AM48.2 °F48.2 °F100 %30.47 in7.0 miWSW (250°)3.5 mphDrizzle
1:35 AM48.2 °F48.2 °F100 %30.47 in3.0 miSW (230°)4.6 mph0.01 inDrizzle
1:55 AM48.2 °F48.2 °F100 %30.47 in3.0 miSSW (210°)5.8 mph0.02 inRainLight Rain
2:15 AM48.2 °F48.2 °F100 %30.47 in5.0 miSW (220°)5.8 mphRainLight Rain
2:35 AM48.2 °F48.2 °F100 %30.47 in7.0 miSW (220°)3.5 mph0.01 inDrizzle
2:55 AM48.2 °F48.2 °F100 %30.47 in4.0 miSSE (150°)3.5 mph0.02 inDrizzle
3:15 AM48.2 °F48.2 °F100 %30.47 in3.0 miSE (140°)3.5 mph0.01 inHeavy Drizzle
3:35 AM48.2 °F48.2 °F100 %30.46 in4.0 miSSE (150°)5.8 mph0.02 inDrizzle
3:55 AM48.2 °F48.2 °F100 %30.46 in4.0 miSSE (150°)4.6 mph0.04 inRainRain
4:15 AM48.2 °F48.2 °F100 %30.45 in3.0 miSouth (170°)4.6 mph0.01 inDrizzle
4:35 AM48.2 °F48.2 °F100 %30.45 in3.0 miCalm0.01 inDrizzle
4:55 AM48.2 °F48.2 °F100 %30.45 in3.0 miCalm0.03 inDrizzle
5:15 AM48.2 °F48.2 °F100 %30.44 in2.5 miSouth (170°)3.5 mphLight Drizzle
5:35 AM48.2 °F48.2 °F100 %30.44 in2.5 miSSE (160°)4.6 mphOvercast
5:55 AM48.2 °F48.2 °F100 %30.44 in2.5 miCalmOvercast
6:15 AM48.2 °F48.2 °F100 %30.44 in2.0 miSouth (190°)3.5 mph0.01 inDrizzle
6:35 AM50.0 °F50.0 °F100 %30.45 in3.0 miSW (220°)4.6 mph0.01 inOvercast
6:55 AM50.0 °F50.0 °F100 %30.44 in3.0 miWSW (250°)4.6 mph0.02 inLight Drizzle
7:15 AM50.0 °F50.0 °F100 %30.45 in4.0 miWNW (290°)5.8 mphOvercast
7:35 AM48.2 °F48.2 °F100 %30.45 in7.0 miNW (310°)10.4 mphOvercast
7:55 AM48.2 °F48.2 °F100 %30.46 in4.0 miNW (310°)9.2 mphOvercast
8:15 AM48.2 °F48.2 °F100 %30.46 in5.0 miWNW (300°)8.1 mphOvercast
8:35 AM46.4 °F46.4 °F100 %30.47 in4.0 miWNW (290°)10.4 mphOvercast
8:55 AM46.4 °F46.4 °F100 %30.47 in4.0 miWest (280°)6.9 mphOvercast
9:15 AM46.4 °F46.4 °F100 %30.48 in2.5 miWNW (290°)5.8 mphOvercast
9:35 AM46.4 °F46.4 °F100 %30.48 in4.0 miWest (280°)5.8 mphOvercast
9:55 AM46.4 °F46.4 °F100 %30.49 in5.0 miWNW (300°)8.1 mphOvercast
10:15 AM46.4 °F46.4 °F100 %30.50 in10.0 miWNW (290°)6.9 mphOvercast
10:35 AM46.4 °F46.4 °F100 %30.50 in10.0 miWNW (290°)4.6 mphOvercast
10:55 AM48.2 °F48.2 °F100 %30.50 in10.0 miCalmOvercast
11:15 AM48.2 °F48.2 °F100 %30.50 in10.0 miCalmOvercast
11:35 AM48.2 °F44.6 °F87 %30.50 in10.0 miCalmOvercast
11:55 AM50.0 °F44.6 °F82 %30.51 in10.0 miCalmOvercast
12:15 PM50.0 °F44.6 °F82 %30.51 in10.0 miWest (280°)3.5 mphOvercast
12:35 PM50.0 °F42.8 °F76 %30.51 in10.0 miCalmOvercast
12:55 PM50.0 °F42.8 °F76 %30.50 in10.0 miCalmOvercast
1:15 PM50.0 °F44.6 °F82 %30.50 in10.0 miCalmOvercast
1:35 PM50.0 °F42.8 °F76 %30.50 in10.0 miCalmOvercast
1:55 PM50.0 °F44.6 °F82 %30.49 in10.0 miCalmOvercast
2:15 PM50.0 °F42.8 °F76 %30.49 in10.0 miCalmOvercast
2:35 PM51.8 °F42.8 °F71 %30.49 in10.0 miCalmOvercast
2:55 PM51.8 °F42.8 °F71 %30.48 in10.0 miCalmOvercast
3:15 PM50.0 °F42.8 °F76 %30.48 in10.0 miCalmOvercast
3:35 PM50.0 °F42.8 °F76 %30.48 in10.0 miWNW (290°)3.5 mphOvercast
3:55 PM50.0 °F44.6 °F82 %30.48 in7.0 miWest (260°)5.8 mphOvercast
4:15 PM50.0 °F44.6 °F82 %30.48 in10.0 miWest (260°)4.6 mphOvercast
4:35 PM50.0 °F44.6 °F82 %30.48 in10.0 miWest (280°)4.6 mphOvercast
4:55 PM50.0 °F44.6 °F82 %30.48 in10.0 miWest (280°)3.5 mphOvercast
5:15 PM50.0 °F44.6 °F82 %30.48 in10.0 miCalmOvercast
5:35 PM50.0 °F44.6 °F82 %30.48 in10.0 miWSW (250°)3.5 mphOvercast
5:55 PM50.0 °F44.6 °F82 %30.49 in10.0 miWest (280°)3.5 mphOvercast
6:15 PM50.0 °F44.6 °F82 %30.49 in10.0 miCalmOvercast
6:35 PM48.2 °F44.6 °F87 %30.48 in10.0 miCalmOvercast
6:55 PM48.2 °F44.6 °F87 %30.49 in10.0 miCalmOvercast
7:15 PM48.2 °F44.6 °F87 %30.50 in10.0 miCalmOvercast
7:35 PM48.2 °F44.6 °F87 %30.49 in10.0 miCalmOvercast
7:55 PM48.2 °F44.6 °F87 %30.50 in10.0 miCalmOvercast
8:15 PM48.2 °F44.6 °F87 %30.50 in10.0 miCalmOvercast
8:35 PM46.4 °F44.6 °F93 %30.50 in10.0 miSouth (170°)3.5 mphOvercast
8:55 PM46.4 °F44.6 °F93 %30.50 in7.0 miCalmOvercast
9:15 PM46.4 °F44.6 °F93 %30.50 in10.0 miCalmOvercast
9:35 PM46.4 °F44.6 °F93 %30.51 in7.0 miCalmOvercast
9:55 PM46.4 °F44.6 °F93 %30.51 in7.0 miCalmOvercast
10:15 PM46.4 °F44.6 °F93 %30.51 in7.0 miCalmOvercast
10:35 PM46.4 °F44.6 °F93 %30.52 in7.0 miCalmOvercast
10:55 PM46.4 °F44.6 °F93 %30.52 in10.0 miCalmOvercast
11:15 PM46.4 °F44.6 °F93 %30.52 in10.0 miCalmOvercast
11:35 PM46.4 °F44.6 °F93 %30.52 in10.0 miCalmOvercast
11:55 PM46.4 °F44.6 °F93 %30.52 in10.0 miCalmOvercast
Hourly data recorded from KTMK, located miles away from Tillamook, Oregon







STORIES FROM OUR PARTNERS